Tracking 18647 objects as of 29-May-2017
HD Live streaming from Space Station
objects crossing your sky now

AMAZONAS 2

Track AMAZONAS 2 now!
AMAZONAS 2 is classified as:


NORAD ID: 35942
Int'l Code: 2009-054A
Perigee: 35,777.9 km
Apogee: 35,810.1 km
Inclination: 0.1 °
Period: 1,436.1 minutes
Semi major axis: 42165 km
RCS: 8.2771 m2 (large)
Launch date: September 30, 2009
Source: Spain (SPN)
Launch site: FRENCH GUIANA (FRGUI)

Amazonas 2 was built by Astrium based on its Eurostar E3000 satellite bus, for on-orbit delivery in 2009. Amazonas 2 will be operated from at 61° West, providing relay services with 54 Ku band and 10 C band transponders.
Your satellite tracking list
Your tracking list is empty





NASA's NSSDC Master Catalog

Two Line Element Set (TLE):
1 35942U 09054A   17148.56021689 -.00000298 +00000-0 +00000-0 0  9999
2 35942 000.0686 124.4799 0003820 331.6955 290.8084 01.00270743028034
Source of the keplerian elements: AFSPC